Year,Month,Day,Hour,Minute,Value (Times are PST for temperature in C)
2021,07,07,00,00,21.70
2021,07,07,00,01,21.60
2021,07,07,00,02,21.60
2021,07,07,00,03,21.60
2021,07,07,00,04,21.60
2021,07,07,00,05,21.60
2021,07,07,00,06,21.60
2021,07,07,00,07,21.50
2021,07,07,00,08,21.50
2021,07,07,00,09,21.40
2021,07,07,00,10,21.40
2021,07,07,00,11,21.40
2021,07,07,00,12,21.40
2021,07,07,00,13,21.30
2021,07,07,00,14,21.30
2021,07,07,00,15,21.30
2021,07,07,00,16,21.30
2021,07,07,00,17,21.30
2021,07,07,00,18,21.30
2021,07,07,00,19,21.30
2021,07,07,00,20,21.20
2021,07,07,00,21,21.20
2021,07,07,00,22,21.20
2021,07,07,00,23,21.20
2021,07,07,00,24,21.20
2021,07,07,00,25,21.20
2021,07,07,00,26,21.20
2021,07,07,00,27,21.10
2021,07,07,00,28,21.10
2021,07,07,00,29,21.10
2021,07,07,00,30,21.10
2021,07,07,00,31,21.10
2021,07,07,00,32,21.10
2021,07,07,00,33,21.00
2021,07,07,00,34,21.00
2021,07,07,00,35,21.00
2021,07,07,00,36,21.00
2021,07,07,00,37,21.00
2021,07,07,00,38,21.00
2021,07,07,00,39,21.00
2021,07,07,00,40,20.90
2021,07,07,00,41,20.90
2021,07,07,00,42,20.90
2021,07,07,00,43,20.90
2021,07,07,00,44,20.90
2021,07,07,00,45,20.90
2021,07,07,00,46,20.90
2021,07,07,00,47,20.90
2021,07,07,00,48,20.90
2021,07,07,00,49,20.90
2021,07,07,00,50,20.90
2021,07,07,00,51,20.80
2021,07,07,00,52,20.80
2021,07,07,00,53,20.80
2021,07,07,00,54,20.80
2021,07,07,00,55,20.70
2021,07,07,00,56,20.70
2021,07,07,00,57,20.70
2021,07,07,00,58,20.70
2021,07,07,00,59,20.70
2021,07,07,01,00,20.60
2021,07,07,01,01,20.60
2021,07,07,01,02,20.60
2021,07,07,01,03,20.60
2021,07,07,01,04,20.60
2021,07,07,01,05,20.60
2021,07,07,01,06,20.60
2021,07,07,01,07,20.50
2021,07,07,01,08,20.50
2021,07,07,01,09,20.50
2021,07,07,01,10,20.50
2021,07,07,01,11,20.40
2021,07,07,01,12,20.40
2021,07,07,01,13,20.40
2021,07,07,01,14,20.40
2021,07,07,01,15,20.40
2021,07,07,01,16,20.40
2021,07,07,01,17,20.30
2021,07,07,01,18,20.30
2021,07,07,01,19,20.30
2021,07,07,01,20,20.30
2021,07,07,01,21,20.20
2021,07,07,01,22,20.20
2021,07,07,01,23,20.20
2021,07,07,01,24,20.20
2021,07,07,01,25,20.20
2021,07,07,01,26,20.10
2021,07,07,01,27,20.10
2021,07,07,01,28,20.10
2021,07,07,01,29,20.10
2021,07,07,01,30,20.10
2021,07,07,01,31,20.10
2021,07,07,01,32,20.10
2021,07,07,01,33,20.10
2021,07,07,01,34,20.10
2021,07,07,01,35,20.00
2021,07,07,01,36,20.00
2021,07,07,01,37,20.00
2021,07,07,01,38,20.00
2021,07,07,01,39,20.00
2021,07,07,01,40,20.00
2021,07,07,01,41,20.00
2021,07,07,01,42,19.90
2021,07,07,01,43,19.90
2021,07,07,01,44,19.90
2021,07,07,01,45,19.90
2021,07,07,01,46,19.90
2021,07,07,01,47,19.90
2021,07,07,01,48,19.90
2021,07,07,01,49,19.80
2021,07,07,01,50,19.80
2021,07,07,01,51,19.80
2021,07,07,01,52,19.80
2021,07,07,01,53,19.80
2021,07,07,01,54,19.70
2021,07,07,01,55,19.80
2021,07,07,01,56,19.70
2021,07,07,01,57,19.70
2021,07,07,01,58,19.70
2021,07,07,01,59,19.70
2021,07,07,02,00,19.70
2021,07,07,02,01,19.70
2021,07,07,02,02,19.70
2021,07,07,02,03,19.70
2021,07,07,02,04,19.70
2021,07,07,02,05,19.70
2021,07,07,02,06,19.70
2021,07,07,02,07,19.70
2021,07,07,02,08,19.70
2021,07,07,02,09,19.60
2021,07,07,02,10,19.60
2021,07,07,02,11,19.60
2021,07,07,02,12,19.60
2021,07,07,02,13,19.60
2021,07,07,02,14,19.60
2021,07,07,02,15,19.60
2021,07,07,02,16,19.60
2021,07,07,02,17,19.60
2021,07,07,02,18,19.60
2021,07,07,02,19,19.60
2021,07,07,02,20,19.60
2021,07,07,02,21,19.50
2021,07,07,02,22,19.50
2021,07,07,02,23,19.50
2021,07,07,02,24,19.50
2021,07,07,02,25,19.50
2021,07,07,02,26,19.40
2021,07,07,02,27,19.40
2021,07,07,02,28,19.40
2021,07,07,02,29,19.40
2021,07,07,02,30,19.40
2021,07,07,02,31,19.40
2021,07,07,02,32,19.30
2021,07,07,02,33,19.30
2021,07,07,02,34,19.30
2021,07,07,02,35,19.30
2021,07,07,02,36,19.30
2021,07,07,02,37,19.20
2021,07,07,02,38,19.20
2021,07,07,02,39,19.20
2021,07,07,02,40,19.20
2021,07,07,02,41,19.10
2021,07,07,02,42,19.10
2021,07,07,02,43,19.10
2021,07,07,02,44,19.10
2021,07,07,02,45,19.10
2021,07,07,02,46,19.10
2021,07,07,02,47,19.10
2021,07,07,02,48,19.00
2021,07,07,02,49,19.00
2021,07,07,02,50,19.00
2021,07,07,02,51,19.00
2021,07,07,02,52,19.00
2021,07,07,02,53,19.00
2021,07,07,02,54,19.00
2021,07,07,02,55,19.00
2021,07,07,02,56,19.00
2021,07,07,02,57,18.90
2021,07,07,02,58,18.90
2021,07,07,02,59,18.90
2021,07,07,03,00,18.90
2021,07,07,03,01,18.90
2021,07,07,03,02,18.90
2021,07,07,03,03,18.90
2021,07,07,03,04,18.90
2021,07,07,03,05,18.90
2021,07,07,03,06,18.90
2021,07,07,03,07,18.80
2021,07,07,03,08,18.80
2021,07,07,03,09,18.80
2021,07,07,03,10,18.90
2021,07,07,03,11,18.90
2021,07,07,03,12,18.80
2021,07,07,03,13,18.80
2021,07,07,03,14,18.80
2021,07,07,03,15,18.80
2021,07,07,03,16,18.80
2021,07,07,03,17,18.80
2021,07,07,03,18,18.80
2021,07,07,03,19,18.70
2021,07,07,03,20,18.70
2021,07,07,03,21,18.70
2021,07,07,03,22,18.70
2021,07,07,03,23,18.70
2021,07,07,03,24,18.70
2021,07,07,03,25,18.70
2021,07,07,03,26,18.70
2021,07,07,03,27,18.70
2021,07,07,03,28,18.70
2021,07,07,03,29,18.70
2021,07,07,03,30,18.70
2021,07,07,03,31,18.70
2021,07,07,03,32,18.70
2021,07,07,03,33,18.80
2021,07,07,03,34,18.80
2021,07,07,03,35,18.70
2021,07,07,03,36,18.80
2021,07,07,03,37,18.80
2021,07,07,03,38,18.80
2021,07,07,03,39,18.70
2021,07,07,03,40,18.70
2021,07,07,03,41,18.70
2021,07,07,03,42,18.70
2021,07,07,03,43,18.60
2021,07,07,03,44,18.60
2021,07,07,03,45,18.60
2021,07,07,03,46,18.60
2021,07,07,03,47,18.60
2021,07,07,03,48,18.50
2021,07,07,03,49,18.50
2021,07,07,03,50,18.50
2021,07,07,03,51,18.50
2021,07,07,03,52,18.50
2021,07,07,03,53,18.40
2021,07,07,03,54,18.40
2021,07,07,03,55,18.40
2021,07,07,03,56,18.40
2021,07,07,03,57,18.40
2021,07,07,03,58,18.30
2021,07,07,03,59,18.30
2021,07,07,04,00,18.30
2021,07,07,04,01,18.30
2021,07,07,04,02,18.30
2021,07,07,04,03,18.30
2021,07,07,04,04,18.20
2021,07,07,04,05,18.20
2021,07,07,04,06,18.20
2021,07,07,04,07,18.20
2021,07,07,04,08,18.20
2021,07,07,04,09,18.20
2021,07,07,04,10,18.20
2021,07,07,04,11,18.20
2021,07,07,04,12,18.20
2021,07,07,04,13,18.20
2021,07,07,04,14,18.10
2021,07,07,04,15,18.10
2021,07,07,04,16,18.10
2021,07,07,04,17,18.00
2021,07,07,04,18,18.00
2021,07,07,04,19,18.00
2021,07,07,04,20,18.00
2021,07,07,04,21,18.00
2021,07,07,04,22,17.90
2021,07,07,04,23,17.90
2021,07,07,04,24,17.90
2021,07,07,04,25,17.90
2021,07,07,04,26,17.90
2021,07,07,04,27,17.90
2021,07,07,04,28,17.80
2021,07,07,04,29,17.80
2021,07,07,04,30,17.80
2021,07,07,04,31,17.80
2021,07,07,04,32,17.70
2021,07,07,04,33,17.70
2021,07,07,04,34,17.70
2021,07,07,04,35,17.70
2021,07,07,04,36,17.70
2021,07,07,04,37,17.70
2021,07,07,04,38,17.70
2021,07,07,04,39,17.70
2021,07,07,04,40,17.70
2021,07,07,04,41,17.70
2021,07,07,04,42,17.70
2021,07,07,04,43,17.70
2021,07,07,04,44,17.70
2021,07,07,04,45,17.70
2021,07,07,04,46,17.70
2021,07,07,04,47,17.70
2021,07,07,04,48,17.60
2021,07,07,04,49,17.60
2021,07,07,04,50,17.60
2021,07,07,04,51,17.60
2021,07,07,04,52,17.60
2021,07,07,04,53,17.60
2021,07,07,04,54,17.60
2021,07,07,04,55,17.60
2021,07,07,04,56,17.60
2021,07,07,04,57,17.60
2021,07,07,04,58,17.60
2021,07,07,04,59,17.60
2021,07,07,05,00,17.60
2021,07,07,05,01,17.60
2021,07,07,05,02,17.50
2021,07,07,05,03,17.50
2021,07,07,05,04,17.50
2021,07,07,05,05,17.40
2021,07,07,05,06,17.40
2021,07,07,05,07,17.40
2021,07,07,05,08,17.40
2021,07,07,05,09,17.40
2021,07,07,05,10,17.40
2021,07,07,05,11,17.30
2021,07,07,05,12,17.30
2021,07,07,05,13,17.30
2021,07,07,05,14,17.30
2021,07,07,05,15,17.40
2021,07,07,05,16,17.40
2021,07,07,05,17,17.40
2021,07,07,05,18,17.40
2021,07,07,05,19,17.40
2021,07,07,05,20,17.40
2021,07,07,05,21,17.40
2021,07,07,05,22,17.40
2021,07,07,05,23,17.40
2021,07,07,05,24,17.40
2021,07,07,05,25,17.40
2021,07,07,05,26,17.40
2021,07,07,05,27,17.40
2021,07,07,05,28,17.40
2021,07,07,05,29,17.40
2021,07,07,05,30,17.30
2021,07,07,05,31,17.30
2021,07,07,05,32,17.30
2021,07,07,05,33,17.30
2021,07,07,05,34,17.30
2021,07,07,05,35,17.30
2021,07,07,05,36,17.30
2021,07,07,05,37,17.30
2021,07,07,05,38,17.30
2021,07,07,05,39,17.30
2021,07,07,05,40,17.30
2021,07,07,05,41,17.30
2021,07,07,05,42,17.30
2021,07,07,05,43,17.30
2021,07,07,05,44,17.30
2021,07,07,05,45,17.30
2021,07,07,05,46,17.30
2021,07,07,05,47,17.30
2021,07,07,05,48,17.30
2021,07,07,05,49,17.30
2021,07,07,05,50,17.30
2021,07,07,05,51,17.30
2021,07,07,05,52,17.30
2021,07,07,05,53,17.20
2021,07,07,05,54,17.20
2021,07,07,05,55,17.20
2021,07,07,05,56,17.20
2021,07,07,05,57,17.20
2021,07,07,05,58,17.20
2021,07,07,05,59,17.20
2021,07,07,06,00,17.20
2021,07,07,06,01,17.20
2021,07,07,06,02,17.20
2021,07,07,06,03,17.20
2021,07,07,06,04,17.20
2021,07,07,06,05,17.20
2021,07,07,06,06,17.20
2021,07,07,06,07,17.20
2021,07,07,06,08,17.20
2021,07,07,06,09,17.10
2021,07,07,06,10,17.10
2021,07,07,06,11,17.10
2021,07,07,06,12,17.10
2021,07,07,06,13,17.10
2021,07,07,06,14,17.10
2021,07,07,06,15,17.10
2021,07,07,06,16,17.00
2021,07,07,06,17,17.00
2021,07,07,06,18,17.00
2021,07,07,06,19,17.00
2021,07,07,06,20,16.90
2021,07,07,06,21,16.90
2021,07,07,06,22,16.90
2021,07,07,06,23,16.90
2021,07,07,06,24,16.80
2021,07,07,06,25,16.80
2021,07,07,06,26,16.80
2021,07,07,06,27,16.80
2021,07,07,06,28,16.80
2021,07,07,06,29,16.80
2021,07,07,06,30,16.80
2021,07,07,06,31,16.70
2021,07,07,06,32,16.70
2021,07,07,06,33,16.70
2021,07,07,06,34,16.70
2021,07,07,06,35,16.70
2021,07,07,06,36,16.70
2021,07,07,06,37,16.70
2021,07,07,06,38,16.70
2021,07,07,06,39,16.70
2021,07,07,06,40,16.60
2021,07,07,06,41,16.60
2021,07,07,06,42,16.60
2021,07,07,06,43,16.60
2021,07,07,06,44,16.60
2021,07,07,06,45,16.60
2021,07,07,06,46,16.60
2021,07,07,06,47,16.60
2021,07,07,06,48,16.60
2021,07,07,06,49,16.60
2021,07,07,06,50,16.70
2021,07,07,06,51,16.70
2021,07,07,06,52,16.70
2021,07,07,06,53,16.60
2021,07,07,06,54,16.60
2021,07,07,06,55,16.70
2021,07,07,06,56,16.70
2021,07,07,06,57,16.70
2021,07,07,06,58,16.70
2021,07,07,06,59,16.70
2021,07,07,07,00,16.70
2021,07,07,07,01,16.70
2021,07,07,07,02,16.70
2021,07,07,07,03,16.70
2021,07,07,07,04,16.70
2021,07,07,07,05,16.70
2021,07,07,07,06,16.70
2021,07,07,07,07,16.70
2021,07,07,07,08,16.70
2021,07,07,07,09,16.70
2021,07,07,07,10,16.80
2021,07,07,07,11,16.80
2021,07,07,07,12,16.80
2021,07,07,07,13,16.80
2021,07,07,07,14,16.80
2021,07,07,07,15,16.80
2021,07,07,07,16,16.80
2021,07,07,07,17,16.80
2021,07,07,07,18,16.80
2021,07,07,07,19,16.80
2021,07,07,07,20,16.80
2021,07,07,07,21,16.70
2021,07,07,07,22,16.70
2021,07,07,07,23,16.70
2021,07,07,07,24,16.70
2021,07,07,07,25,16.70
2021,07,07,07,26,16.70
2021,07,07,07,27,16.70
2021,07,07,07,28,16.70
2021,07,07,07,29,16.80
2021,07,07,07,30,16.80
2021,07,07,07,31,16.80
2021,07,07,07,32,16.80
2021,07,07,07,33,16.80
2021,07,07,07,34,16.80
2021,07,07,07,35,16.80
2021,07,07,07,36,16.90
2021,07,07,07,37,16.90
2021,07,07,07,38,16.90
2021,07,07,07,39,16.90
2021,07,07,07,40,16.90
2021,07,07,07,41,17.00
2021,07,07,07,42,17.00
2021,07,07,07,43,17.00
2021,07,07,07,44,17.10
2021,07,07,07,45,17.10
2021,07,07,07,46,17.10
2021,07,07,07,47,17.10
2021,07,07,07,48,17.10
2021,07,07,07,49,17.10
2021,07,07,07,50,17.00
2021,07,07,07,51,17.00
2021,07,07,07,52,17.00
2021,07,07,07,53,17.00
2021,07,07,07,54,17.00
2021,07,07,07,55,17.00
2021,07,07,07,56,16.90
2021,07,07,07,57,16.90
2021,07,07,07,58,16.90
2021,07,07,07,59,16.90
2021,07,07,08,00,16.90
2021,07,07,08,01,16.90
2021,07,07,08,02,16.90
2021,07,07,08,03,16.80
2021,07,07,08,04,16.80
2021,07,07,08,05,16.80
2021,07,07,08,06,16.80
2021,07,07,08,07,16.80
2021,07,07,08,08,16.80
2021,07,07,08,09,16.90
2021,07,07,08,10,16.90
2021,07,07,08,11,16.90
2021,07,07,08,12,16.90
2021,07,07,08,13,16.90
2021,07,07,08,14,17.00
2021,07,07,08,15,17.00
2021,07,07,08,16,17.00
2021,07,07,08,17,17.00
2021,07,07,08,18,17.10
2021,07,07,08,19,17.10
2021,07,07,08,20,17.10
2021,07,07,08,21,17.10
2021,07,07,08,22,17.10
2021,07,07,08,23,17.10
2021,07,07,08,24,17.10
2021,07,07,08,25,17.10
2021,07,07,08,26,17.10
2021,07,07,08,27,17.10
2021,07,07,08,28,17.10
2021,07,07,08,29,17.10
2021,07,07,08,30,17.10
2021,07,07,08,31,17.00
2021,07,07,08,32,17.00
2021,07,07,08,33,17.00
2021,07,07,08,34,17.00
2021,07,07,08,35,17.00
2021,07,07,08,36,17.00
2021,07,07,08,37,17.00
2021,07,07,08,38,17.00
2021,07,07,08,39,17.10
2021,07,07,08,40,17.10
2021,07,07,08,41,17.10
2021,07,07,08,42,17.10
2021,07,07,08,43,17.20
2021,07,07,08,44,17.20
2021,07,07,08,45,17.30
2021,07,07,08,46,17.40
2021,07,07,08,47,17.40
2021,07,07,08,48,17.50
2021,07,07,08,49,17.60
2021,07,07,08,50,17.60
2021,07,07,08,51,17.70
2021,07,07,08,52,17.80
2021,07,07,08,53,17.80
2021,07,07,08,54,17.90
2021,07,07,08,55,18.00
2021,07,07,08,56,18.00
2021,07,07,08,57,18.10
2021,07,07,08,58,18.10
2021,07,07,08,59,18.10
2021,07,07,09,00,18.10
2021,07,07,09,01,18.10
2021,07,07,09,02,18.20
2021,07,07,09,03,18.20
2021,07,07,09,04,18.20
2021,07,07,09,05,18.20
2021,07,07,09,06,18.20
2021,07,07,09,07,18.20
2021,07,07,09,08,18.30
2021,07,07,09,09,18.30
2021,07,07,09,10,18.30
2021,07,07,09,11,18.40
2021,07,07,09,12,18.40
2021,07,07,09,13,18.40
2021,07,07,09,14,18.50
2021,07,07,09,15,18.60
2021,07,07,09,16,18.60
2021,07,07,09,17,18.60
2021,07,07,09,18,18.60
2021,07,07,09,19,18.60
2021,07,07,09,20,18.60
2021,07,07,09,21,18.60
2021,07,07,09,22,18.60
2021,07,07,09,23,18.60
2021,07,07,09,24,18.70
2021,07,07,09,25,18.70
2021,07,07,09,26,18.80
2021,07,07,09,27,18.80
2021,07,07,09,28,18.90
2021,07,07,09,29,18.90
2021,07,07,09,30,18.90
2021,07,07,09,31,19.00
2021,07,07,09,32,19.10
2021,07,07,09,33,19.10
2021,07,07,09,34,19.20
2021,07,07,09,35,19.20
2021,07,07,09,36,19.30
2021,07,07,09,37,19.30
2021,07,07,09,38,19.40
2021,07,07,09,39,19.40
2021,07,07,09,40,19.50
2021,07,07,09,41,19.50
2021,07,07,09,42,19.60
2021,07,07,09,43,19.60
2021,07,07,09,44,19.70
2021,07,07,09,45,19.70
2021,07,07,09,46,19.70
2021,07,07,09,47,19.60
2021,07,07,09,48,19.60
2021,07,07,09,49,19.60
2021,07,07,09,50,19.50
2021,07,07,09,51,19.50
2021,07,07,09,52,19.40
2021,07,07,09,53,19.30
2021,07,07,09,54,19.20
2021,07,07,09,55,19.20
2021,07,07,09,56,19.10
2021,07,07,09,57,19.10
2021,07,07,09,58,19.10
2021,07,07,09,59,19.10
2021,07,07,10,00,19.10
2021,07,07,10,01,19.10
2021,07,07,10,02,19.10
2021,07,07,10,03,19.20
2021,07,07,10,04,19.20
2021,07,07,10,05,19.30
2021,07,07,10,06,19.40
2021,07,07,10,07,19.50
2021,07,07,10,08,19.50
2021,07,07,10,09,19.50
2021,07,07,10,10,19.50
2021,07,07,10,11,19.40
2021,07,07,10,12,19.40
2021,07,07,10,13,19.30
2021,07,07,10,14,19.20
2021,07,07,10,15,19.20
2021,07,07,10,16,19.20
2021,07,07,10,17,19.20
2021,07,07,10,18,19.30
2021,07,07,10,19,19.30
2021,07,07,10,20,19.40
2021,07,07,10,21,19.50
2021,07,07,10,22,19.60
2021,07,07,10,23,19.70
2021,07,07,10,24,19.70
2021,07,07,10,25,19.80
2021,07,07,10,26,19.90
2021,07,07,10,27,20.00
2021,07,07,10,28,20.00
2021,07,07,10,29,20.10
2021,07,07,10,30,20.20
2021,07,07,10,31,20.30
2021,07,07,10,32,20.30
2021,07,07,10,33,20.30
2021,07,07,10,34,20.30
2021,07,07,10,35,20.40
2021,07,07,10,36,20.40
2021,07,07,10,37,20.40
2021,07,07,10,38,20.40
2021,07,07,10,39,20.40
2021,07,07,10,40,20.30
2021,07,07,10,41,20.30
2021,07,07,10,42,20.30
2021,07,07,10,43,20.30
2021,07,07,10,44,20.30
2021,07,07,10,45,20.40
2021,07,07,10,46,20.40
2021,07,07,10,47,20.40
2021,07,07,10,48,20.40
2021,07,07,10,49,20.40
2021,07,07,10,50,20.30
2021,07,07,10,51,20.30
2021,07,07,10,52,20.30
2021,07,07,10,53,20.30
2021,07,07,10,54,20.20
2021,07,07,10,55,20.20
2021,07,07,10,56,20.20
2021,07,07,10,57,20.20
2021,07,07,10,58,20.20
2021,07,07,10,59,20.20
2021,07,07,11,00,20.20
2021,07,07,11,01,20.20
2021,07,07,11,02,20.30
2021,07,07,11,03,20.40
2021,07,07,11,04,20.50
2021,07,07,11,05,20.60
2021,07,07,11,06,20.70
2021,07,07,11,07,20.70
2021,07,07,11,08,20.80
2021,07,07,11,09,20.80
2021,07,07,11,10,20.80
2021,07,07,11,11,20.90
2021,07,07,11,12,21.00
2021,07,07,11,13,21.00
2021,07,07,11,14,21.00
2021,07,07,11,15,21.10
2021,07,07,11,16,21.10
2021,07,07,11,17,21.20
2021,07,07,11,18,21.20
2021,07,07,11,19,21.20
2021,07,07,11,20,21.20
2021,07,07,11,21,21.20
2021,07,07,11,22,21.10
2021,07,07,11,23,21.10
2021,07,07,11,24,21.10
2021,07,07,11,25,21.10
2021,07,07,11,26,21.10
2021,07,07,11,27,21.10
2021,07,07,11,28,21.10
2021,07,07,11,29,21.10
2021,07,07,11,30,21.10
2021,07,07,11,31,21.10
2021,07,07,11,32,21.00
2021,07,07,11,33,20.90
2021,07,07,11,34,20.90
2021,07,07,11,35,20.80
2021,07,07,11,36,20.70
2021,07,07,11,37,20.70
2021,07,07,11,38,20.70
2021,07,07,11,39,20.70
2021,07,07,11,40,20.70
2021,07,07,11,41,20.70
2021,07,07,11,42,20.80
2021,07,07,11,43,20.90
2021,07,07,11,44,21.00
2021,07,07,11,45,21.10
2021,07,07,11,46,21.20
2021,07,07,11,47,21.30
2021,07,07,11,48,21.30
2021,07,07,11,49,21.40
2021,07,07,11,50,21.50
2021,07,07,11,51,21.60
2021,07,07,11,52,21.70
2021,07,07,11,53,21.80
2021,07,07,11,54,21.90
2021,07,07,11,55,22.00
2021,07,07,11,56,22.10
2021,07,07,11,57,22.20
2021,07,07,11,58,22.20
2021,07,07,11,59,22.20
2021,07,07,12,00,22.30
2021,07,07,12,01,22.40
2021,07,07,12,02,22.50
2021,07,07,12,03,22.60
2021,07,07,12,04,22.60
2021,07,07,12,05,22.60
2021,07,07,12,06,22.60
2021,07,07,12,07,22.60
2021,07,07,12,08,22.60
2021,07,07,12,09,22.70
2021,07,07,12,10,22.80
2021,07,07,12,11,22.80
2021,07,07,12,12,22.80
2021,07,07,12,13,22.70
2021,07,07,12,14,22.70
2021,07,07,12,15,22.70
2021,07,07,12,16,22.70
2021,07,07,12,17,22.60
2021,07,07,12,18,22.50
2021,07,07,12,19,22.50
2021,07,07,12,20,22.50
2021,07,07,12,21,22.50
2021,07,07,12,22,22.50
2021,07,07,12,23,22.60
2021,07,07,12,24,22.60
2021,07,07,12,25,22.60
2021,07,07,12,26,22.60
2021,07,07,12,27,22.70
2021,07,07,12,28,22.70
2021,07,07,12,29,22.70
2021,07,07,12,30,22.70
2021,07,07,12,31,22.70
2021,07,07,12,32,22.70
2021,07,07,12,33,22.80
2021,07,07,12,34,22.80
2021,07,07,12,35,22.80
2021,07,07,12,36,22.80
2021,07,07,12,37,22.90
2021,07,07,12,38,22.90
2021,07,07,12,39,23.00
2021,07,07,12,40,22.90
2021,07,07,12,41,22.90
2021,07,07,12,42,22.90
2021,07,07,12,43,22.90
2021,07,07,12,44,22.90
2021,07,07,12,45,22.90
2021,07,07,12,46,22.80
2021,07,07,12,47,22.80
2021,07,07,12,48,22.80
2021,07,07,12,49,22.80
2021,07,07,12,50,22.70
2021,07,07,12,51,22.60
2021,07,07,12,52,22.60
2021,07,07,12,53,22.70
2021,07,07,12,54,22.70
2021,07,07,12,55,22.80
2021,07,07,12,56,22.90
2021,07,07,12,57,22.90
2021,07,07,12,58,22.90
2021,07,07,12,59,22.90
2021,07,07,13,00,22.90
2021,07,07,13,01,22.80
2021,07,07,13,02,22.70
2021,07,07,13,03,22.60
2021,07,07,13,04,22.50
2021,07,07,13,05,22.50
2021,07,07,13,06,22.50
2021,07,07,13,07,22.40
2021,07,07,13,08,22.40
2021,07,07,13,09,22.40
2021,07,07,13,10,22.50
2021,07,07,13,11,22.40
2021,07,07,13,12,22.40
2021,07,07,13,13,22.40
2021,07,07,13,14,22.30
2021,07,07,13,15,22.30
2021,07,07,13,16,22.30
2021,07,07,13,17,22.30
2021,07,07,13,18,22.30
2021,07,07,13,19,22.30
2021,07,07,13,20,22.30
2021,07,07,13,21,22.40
2021,07,07,13,22,22.50
2021,07,07,13,23,22.50
2021,07,07,13,24,22.60
2021,07,07,13,25,22.60
2021,07,07,13,26,22.70
2021,07,07,13,27,22.80
2021,07,07,13,28,22.80
2021,07,07,13,29,22.80
2021,07,07,13,30,22.80
2021,07,07,13,31,22.80
2021,07,07,13,32,22.80
2021,07,07,13,33,22.70
2021,07,07,13,34,22.80
2021,07,07,13,35,22.80
2021,07,07,13,36,22.80
2021,07,07,13,37,22.80
2021,07,07,13,38,22.90
2021,07,07,13,39,22.90
2021,07,07,13,40,23.00
2021,07,07,13,41,23.10
2021,07,07,13,42,23.10
2021,07,07,13,43,23.10
2021,07,07,13,44,23.10
2021,07,07,13,45,23.10
2021,07,07,13,46,23.00
2021,07,07,13,47,23.00
2021,07,07,13,48,22.90
2021,07,07,13,49,22.90
2021,07,07,13,50,22.90
2021,07,07,13,51,22.90
2021,07,07,13,52,22.80
2021,07,07,13,53,22.70
2021,07,07,13,54,22.50
2021,07,07,13,55,22.40
2021,07,07,13,56,22.20
2021,07,07,13,57,22.10
2021,07,07,13,58,22.00
2021,07,07,13,59,22.00
2021,07,07,14,00,22.00
2021,07,07,14,01,21.90
2021,07,07,14,02,21.90
2021,07,07,14,03,21.80
2021,07,07,14,04,21.80
2021,07,07,14,05,21.80
2021,07,07,14,06,21.80
2021,07,07,14,07,21.80
2021,07,07,14,08,21.80
2021,07,07,14,09,21.80
2021,07,07,14,10,21.80
2021,07,07,14,11,21.70
2021,07,07,14,12,21.70
2021,07,07,14,13,21.60
2021,07,07,14,14,21.70
2021,07,07,14,15,21.70
2021,07,07,14,16,21.60
2021,07,07,14,17,21.60
2021,07,07,14,18,21.60
2021,07,07,14,19,21.60
2021,07,07,14,20,21.50
2021,07,07,14,21,21.50
2021,07,07,14,22,21.50
2021,07,07,14,23,21.50
2021,07,07,14,24,21.60
2021,07,07,14,25,21.60
2021,07,07,14,26,21.60
2021,07,07,14,27,21.60
2021,07,07,14,28,21.60
2021,07,07,14,29,21.60
2021,07,07,14,30,21.60
2021,07,07,14,31,21.60
2021,07,07,14,32,21.60
2021,07,07,14,33,21.60
2021,07,07,14,34,21.60
2021,07,07,14,35,21.60
2021,07,07,14,36,21.60
2021,07,07,14,37,21.70
2021,07,07,14,38,21.80
2021,07,07,14,39,21.80
2021,07,07,14,40,21.90
2021,07,07,14,41,22.00
2021,07,07,14,42,22.00
2021,07,07,14,43,22.00
2021,07,07,14,44,22.00
2021,07,07,14,45,22.10
2021,07,07,14,46,22.10
2021,07,07,14,47,22.10
2021,07,07,14,48,22.00
2021,07,07,14,49,22.00
2021,07,07,14,50,22.00
2021,07,07,14,51,21.90
2021,07,07,14,52,21.90
2021,07,07,14,53,21.90
2021,07,07,14,54,21.90
2021,07,07,14,55,21.90
2021,07,07,14,56,21.90
2021,07,07,14,57,21.90
2021,07,07,14,58,21.90
2021,07,07,14,59,21.90
2021,07,07,15,00,22.00
2021,07,07,15,01,22.10
2021,07,07,15,02,22.10
2021,07,07,15,03,22.10
2021,07,07,15,04,22.20
2021,07,07,15,05,22.20
2021,07,07,15,06,22.20
2021,07,07,15,07,22.20
2021,07,07,15,08,22.10
2021,07,07,15,09,22.10
2021,07,07,15,10,22.10
2021,07,07,15,11,22.10
2021,07,07,15,12,22.20
2021,07,07,15,13,22.20
2021,07,07,15,14,22.30
2021,07,07,15,15,22.40
2021,07,07,15,16,22.40
2021,07,07,15,17,22.50
2021,07,07,15,18,22.60
2021,07,07,15,19,22.60
2021,07,07,15,20,22.60
2021,07,07,15,21,22.60
2021,07,07,15,22,22.60
2021,07,07,15,23,22.60
2021,07,07,15,24,22.60
2021,07,07,15,25,22.60
2021,07,07,15,26,22.60
2021,07,07,15,27,22.60
2021,07,07,15,28,22.60
2021,07,07,15,29,22.60
2021,07,07,15,30,22.60
2021,07,07,15,31,22.60
2021,07,07,15,32,22.60
2021,07,07,15,33,22.60
2021,07,07,15,34,22.60
2021,07,07,15,35,22.50
2021,07,07,15,36,22.40
2021,07,07,15,37,22.40
2021,07,07,15,38,22.30
2021,07,07,15,39,22.30
2021,07,07,15,40,22.30
2021,07,07,15,41,22.30
2021,07,07,15,42,22.30
2021,07,07,15,43,22.30
2021,07,07,15,44,22.30
2021,07,07,15,45,22.30
2021,07,07,15,46,22.30
2021,07,07,15,47,22.30
2021,07,07,15,48,22.30
2021,07,07,15,49,22.30
2021,07,07,15,50,22.30
2021,07,07,15,51,22.30
2021,07,07,15,52,22.30
2021,07,07,15,53,22.30
2021,07,07,15,54,22.30
2021,07,07,15,55,22.30
2021,07,07,15,56,22.30
2021,07,07,15,57,22.20
2021,07,07,15,58,22.20
2021,07,07,15,59,22.20
2021,07,07,16,00,22.20
2021,07,07,16,01,22.20
2021,07,07,16,02,22.10
2021,07,07,16,03,22.10
2021,07,07,16,04,22.10
2021,07,07,16,05,22.20
2021,07,07,16,06,22.20
2021,07,07,16,07,22.20
2021,07,07,16,08,22.30
2021,07,07,16,09,22.30
2021,07,07,16,10,22.40
2021,07,07,16,11,22.50
2021,07,07,16,12,22.50
2021,07,07,16,13,22.60
2021,07,07,16,14,22.60
2021,07,07,16,15,22.60
2021,07,07,16,16,22.60
2021,07,07,16,17,22.70
2021,07,07,16,18,22.70
2021,07,07,16,19,22.80
2021,07,07,16,20,22.80
2021,07,07,16,21,22.90
2021,07,07,16,22,22.90
2021,07,07,16,23,23.00
2021,07,07,16,24,23.00
2021,07,07,16,25,23.00
2021,07,07,16,26,23.10
2021,07,07,16,27,23.10
2021,07,07,16,28,23.10
2021,07,07,16,29,23.10
2021,07,07,16,30,23.10
2021,07,07,16,31,23.10
2021,07,07,16,32,23.10
2021,07,07,16,33,23.10
2021,07,07,16,34,23.10
2021,07,07,16,35,23.00
2021,07,07,16,36,23.00
2021,07,07,16,37,23.00
2021,07,07,16,38,23.00
2021,07,07,16,39,23.10
2021,07,07,16,40,23.10
2021,07,07,16,41,23.10
2021,07,07,16,42,23.10
2021,07,07,16,43,23.10
2021,07,07,16,44,23.10
2021,07,07,16,45,23.10
2021,07,07,16,46,23.00
2021,07,07,16,47,22.90
2021,07,07,16,48,22.90
2021,07,07,16,49,22.90
2021,07,07,16,50,22.90
2021,07,07,16,51,22.90
2021,07,07,16,52,22.90
2021,07,07,16,53,22.80
2021,07,07,16,54,22.90
2021,07,07,16,55,22.90
2021,07,07,16,56,22.90
2021,07,07,16,57,23.00
2021,07,07,16,58,23.00
2021,07,07,16,59,23.10
2021,07,07,17,00,23.10
2021,07,07,17,01,23.10
2021,07,07,17,02,23.10
2021,07,07,17,03,23.00
2021,07,07,17,04,22.90
2021,07,07,17,05,22.90
2021,07,07,17,06,22.90
2021,07,07,17,07,22.90
2021,07,07,17,08,22.90
2021,07,07,17,09,23.00
2021,07,07,17,10,23.00
2021,07,07,17,11,23.10
2021,07,07,17,12,23.10
2021,07,07,17,13,23.10
2021,07,07,17,14,23.10
2021,07,07,17,15,23.20
2021,07,07,17,16,23.20
2021,07,07,17,17,23.30
2021,07,07,17,18,23.30
2021,07,07,17,19,23.30